User: anonymous   Login
Location: Caltech
(34.1382°N, 118.1253°W)
Time: 11:32:04
(UTC-07:00)
Language:

Cosmos 1697 Rocket - Orbit

View from above orbital plane
View from above orbital plane
View from above satellite
View from above satellite

Ground track
Ground track

The orbit data is extracted from the following two-line orbital elements,

1 16182U 85097B   17290.11876278 -.00000135  00000-0 -43970-4 0  9994
2 16182  71.0009 111.5250 0009771 253.8565 246.4827 14.16222743653481
Epoch (UTC): 17 October 2017 02:51:01
Eccentricity: 0.0009771
inclination: 71.0009°
perigee height: 831 km
apogee height: 845 km
right ascension of ascending node: 111.5250°
argument of perigee: 253.8565°
revolutions per day: 14.16222743
mean anomaly at epoch: 246.4827°
orbit number at epoch: 65348

The dashed part of the orbit path shows where the satellite is in the earth's shadow,  

DLR